Location: Poughquag
(41.6090°N, 73.6820°W)
Time: 18:00:47
(UTC-05:00)

A-11 Canister half - Pass Details

Date: 07 December 2023
Orbit: 1526 x 1682 km, 47.3° (Epoch: 23 February)

Event Time Altitude Azimuth Distance (km) Brightness Sun altitude
Rises 18:14:58 0° 234° (SW) 4,907 12.8 -20.0°
Reaches altitude 10° 18:18:06 10° 233° (SW) 3,929 12.1 -20.6°
Maximum altitude 18:28:14 79° 149° (SSE) 1,709 9.1 -22.4°
Enters shadow 18:33:19 35° 69° (ENE) 2,471 9.5 -23.4°
